YO8RBY-13 Weather Reports


Display with metric or nautical units.
time (UTC)temp
F
wind
direction
speed
MPH
gust
MPH
rain 1hr
in
rain 24hr
in
rain mn
in
humidity
%
barometer
mb
20260905160252 68 0.0 0.0 0.00 0.00 0.00 10 973.3
20260905155254 69 0.0 0.0 0.00 0.00 0.00 10 972.9
20260905154252 69 0.0 0.0 0.00 0.00 0.00 10 973.0
20260905153252 70 0.0 0.0 0.00 0.00 0.00 10 973.0
20260905152252 70 0.0 0.0 0.00 0.00 0.00 10 972.9
20260905151252 71 0.0 0.0 0.00 0.00 0.00 10 972.7
20260905150252 72 0.0 0.0 0.00 0.00 0.00 10 972.8
20260905145252 74 0.0 0.0 0.00 0.00 0.00 10 972.7
20260905144252 76 0.0 0.0 0.00 0.00 0.00 95 972.5
20260905143252 78 0.0 0.0 0.00 0.00 0.00 89 972.2
20260905142252 78 0.0 0.0 0.00 0.00 0.00 85 972.1
20260905141258 79 0.0 0.0 0.00 0.00 0.00 90 972.1
20260905140255 79 0.0 0.0 0.00 0.00 0.00 90 972.0
20260905135253 80 0.0 0.0 0.00 0.00 0.00 88 972.1
20260905134252 81 0.0 0.0 0.00 0.00 0.00 79 971.9
20260905133252 82 0.0 0.0 0.00 0.00 0.00 72 971.9
20260905132252 88 0.0 0.0 0.00 0.00 0.00 36 971.4
20260905131252 87 0.0 0.0 0.00 0.00 0.00 37 971.4
20260905130252 87 0.0 0.0 0.00 0.00 0.00 36 971.4
20260905125252 90 0.0 0.0 0.00 0.00 0.00 34 971.3
20260905124252 90 0.0 0.0 0.00 0.00 0.00 33 971.2
20260905123252 89 0.0 0.0 0.00 0.00 0.00 34 971.2
20260905122252 90 0.0 0.0 0.00 0.00 0.00 33 971.3
20260905121252 90 0.0 0.0 0.00 0.00 0.00 34 971.4
20260905120252 90 0.0 0.0 0.00 0.00 0.00 34 971.5
20260905115252 90 0.0 0.0 0.00 0.00 0.00 33 971.5
20260905114252 90 0.0 0.0 0.00 0.00 0.00 35 971.5
20260905113254 90 0.0 0.0 0.00 0.00 0.00 33 971.4
20260905112253 92 0.0 0.0 0.00 0.00 0.00 33 971.4
20260905111252 91 0.0 0.0 0.00 0.00 0.00 34 971.4
20260905110252 90 0.0 0.0 0.00 0.00 0.00 35 971.6
20260905105259 89 0.0 0.0 0.00 0.00 0.00 35 971.5
20260905104252 89 0.0 0.0 0.00 0.00 0.00 38 971.5
20260905103252 88 0.0 0.0 0.00 0.00 0.00 39 971.4
20260905102317 88 0.0 0.0 0.00 0.00 0.00 39 971.6
20260905091253 83 0.0 0.0 0.00 0.00 0.00 47 972.6
20260905090252 83 0.0 0.0 0.00 0.00 0.00 48 972.8
20260905085252 80 0.0 0.0 0.00 0.00 0.00 50 972.7
20260905084252 80 0.0 0.0 0.00 0.00 0.00 50 972.6
20260905083253 80 0.0 0.0 0.00 0.00 0.00 51 972.8
20260905082253 80 0.0 0.0 0.00 0.00 0.00 50 972.9
20260905081252 80 0.0 0.0 0.00 0.00 0.00 52 973.0
20260905080252 81 0.0 0.0 0.00 0.00 0.00 50 973.1
20260905075252 80 0.0 0.0 0.00 0.00 0.00 52 973.2
20260905074252 77 0.0 0.0 0.00 0.00 0.00 56 973.2
20260905073252 77 0.0 0.0 0.00 0.00 0.00 60 973.7
20260905072252 77 0.0 0.0 0.00 0.00 0.00 57 973.5
20260905071252 80 0.0 0.0 0.00 0.00 0.00 52 973.3
20260905070251 79 0.0 0.0 0.00 0.00 0.00 55 973.3
20260905065252 79 0.0 0.0 0.00 0.00 0.00 53 973.5
20260905064251 79 0.0 0.0 0.00 0.00 0.00 58 973.2
20260905063252 78 0.0 0.0 0.00 0.00 0.00 58 973.4
20260905062251 77 0.0 0.0 0.00 0.00 0.00 57 973.5
20260905061251 77 0.0 0.0 0.00 0.00 0.00 63 973.6
20260905060252 75 0.0 0.0 0.00 0.00 0.00 70 973.5
20260905055251 74 0.0 0.0 0.00 0.00 0.00 73 973.3
20260905054254 73 0.0 0.0 0.00 0.00 0.00 81 973.3
20260905053251 75 0.0 0.0 0.00 0.00 0.00 71 973.5
20260905052251 75 0.0 0.0 0.00 0.00 0.00 70 973.6
20260905051252 75 0.0 0.0 0.00 0.00 0.00 71 973.7
20260905050252 73 0.0 0.0 0.00 0.00 0.00 81 973.4
20260905045251 72 0.0 0.0 0.00 0.00 0.00 85 973.5
20260905044251 72 0.0 0.0 0.00 0.00 0.00 88 973.4
20260905043251 71 0.0 0.0 0.00 0.00 0.00 90 973.2
20260905042251 69 0.0 0.0 0.00 0.00 0.00 10 973.2
20260905041251 71 0.0 0.0 0.00 0.00 0.00 94 973.4
20260905040251 71 0.0 0.0 0.00 0.00 0.00 88 973.3
20260905035252 71 0.0 0.0 0.00 0.00 0.00 91 973.4
20260905034251 71 0.0 0.0 0.00 0.00 0.00 90 973.3
20260905033251 71 0.0 0.0 0.00 0.00 0.00 92 973.2
20260905032251 71 0.0 0.0 0.00 0.00 0.00 94 973.2
20260905031251 70 0.0 0.0 0.00 0.00 0.00 99 973.1
20260905030252 69 0.0 0.0 0.00 0.00 0.00 10 973.1
20260905025251 70 0.0 0.0 0.00 0.00 0.00 96 973.1
20260905024252 69 0.0 0.0 0.00 0.00 0.00 10 973.2
20260905023252 66 0.0 0.0 0.00 0.00 0.00 10 973.1
20260905022251 69 0.0 0.0 0.00 0.00 0.00 10 973.3
20260905021252 67 0.0 0.0 0.00 0.00 0.00 10 973.2
20260905020252 63 0.0 0.0 0.00 0.00 0.00 10 973.0
20260905015252 60 0.0 0.0 0.00 0.00 0.00 10 972.8
20260905014251 62 0.0 0.0 0.00 0.00 0.00 10 973.1
20260905013251 62 0.0 0.0 0.00 0.00 0.00 10 973.3
20260905012252 63 0.0 0.0 0.00 0.00 0.00 10 973.3
20260905011251 65 0.0 0.0 0.00 0.00 0.00 10 973.3
20260905010251 66 0.0 0.0 0.00 0.00 0.00 10 973.3
20260905005252 67 0.0 0.0 0.00 0.00 0.00 10 973.2
20260905004252 63 0.0 0.0 0.00 0.00 0.00 10 973.1
20260905003252 62 0.0 0.0 0.00 0.00 0.00 10 973.0
20260905002251 60 0.0 0.0 0.00 0.00 0.00 10 972.8
20260905001251 61 0.0 0.0 0.00 0.00 0.00 10 972.9
20260905000251 62 0.0 0.0 0.00 0.00 0.00 10 973.1
20260904235251 62 0.0 0.0 0.00 0.00 0.00 10 973.2
20260904234251 62 0.0 0.0 0.00 0.00 0.00 10 973.2
20260904233251 62 0.0 0.0 0.00 0.00 0.00 10 973.3
20260904232317 63 0.0 0.0 0.00 0.00 0.00 10 973.3
20260904221251 69 0.0 0.0 0.00 0.00 0.00 90 973.7
20260904220251 69 0.0 0.0 0.00 0.00 0.00 91 973.8
20260904215251 70 0.0 0.0 0.00 0.00 0.00 82 973.7
20260904214251 69 0.0 0.0 0.00 0.00 0.00 90 973.8
20260904213251 71 0.0 0.0 0.00 0.00 0.00 72 973.5
20260904212251 71 0.0 0.0 0.00 0.00 0.00 73 973.6
20260904211251 71 0.0 0.0 0.00 0.00 0.00 72 973.7
20260904210251 71 0.0 0.0 0.00 0.00 0.00 76 973.6
20260904205253 71 0.0 0.0 0.00 0.00 0.00 74 973.7
20260904204251 70 0.0 0.0 0.00 0.00 0.00 86 973.9
20260904203251 72 0.0 0.0 0.00 0.00 0.00 66 973.8
20260904202251 72 0.0 0.0 0.00 0.00 0.00 62 973.8
20260904201251 72 0.0 0.0 0.00 0.00 0.00 67 973.9
20260904200317 71 0.0 0.0 0.00 0.00 0.00 74 974.1
20260904185251 65 0.0 0.0 0.00 0.00 0.00 10 974.2
20260904184251 64 0.0 0.0 0.00 0.00 0.00 10 974.3
20260904183251 65 0.0 0.0 0.00 0.00 0.00 10 974.5
20260904182251 65 0.0 0.0 0.00 0.00 0.00 10 974.3
20260904181251 65 0.0 0.0 0.00 0.00 0.00 10 974.3
20260904180251 67 0.0 0.0 0.00 0.00 0.00 10 974.3
20260904175251 68 0.0 0.0 0.00 0.00 0.00 10 974.3
20260904174251 69 0.0 0.0 0.00 0.00 0.00 10 974.3
20260904173251 69 0.0 0.0 0.00 0.00 0.00 99 974.3
20260904172251 70 0.0 0.0 0.00 0.00 0.00 99 974.2
20260904171251 71 0.0 0.0 0.00 0.00 0.00 85 973.9
20260904170251 73 0.0 0.0 0.00 0.00 0.00 69 973.6
20260904165251 74 0.0 0.0 0.00 0.00 0.00 57 973.7
20260904164251 75 0.0 0.0 0.00 0.00 0.00 52 973.8
20260904163251 76 0.0 0.0 0.00 0.00 0.00 49 973.7
20260904162251 76 0.0 0.0 0.00 0.00 0.00 48 973.8